Погода в Киншасе

Демократическая Республика Конго     4°18′36″S   15°17′22″E
темп.,
°C
ветер,
м/с
пор.,
м/с
влажн.,
%
обл.,
%
осадки,
мм/ч
давл.,
гПа
погр.,
м
26 февраля, пт
пт2601:00+23з258567 1.2 1012325
04:00+23з1286100 0.0 1011208
07:00+23зюз128384 0.0 1013266
10:00+29юз355712 0.0 1013963
13:00+32юз454816 0.0 10101577
16:00+31зюз345511 1.8 10071399
19:00+27ююз237022 3.8 1009398
22:00+25з13750 0.0 1012210
27 февраля, сб
сб2701:00+24з128110 0.0 1011162
04:00+23зсз1183100 0.0 1010193
07:00+24зсз1282100 0.0 1012220
10:00+29зюз2358100 0.0 1012864
13:00+34юз224174 0.0 10081696
16:00+34зюз224233 0.0 10062302
19:00+28юз246342 0.4 1008321
22:00+27ююз14738 0.0 1010223
28 февраля, вс
вс2801:00+25зюз137853 0.5 1009182
04:00+24зюз028168 0.0 1009237
07:00+24юз128142 0.3 1010280
10:00+31юз225726 0.0 1011840
13:00+36з113929 0.1 10071646
16:00+35с233935 0.0 10052017
19:00+30з115149 0.0 1006159
22:00+28зюз136373 0.0 1009180
1 марта, пн
пн101:00+26юз116983 0.0 1008191
04:00+25ююз127426 0.0 1008242
07:00+25зсз127720 0.0 1009279
10:00+31юз23570 0.0 1010889
13:00+35зюз324541 0.0 10061840
16:00+31зюз345673 4.5 1004706
19:00+29з356637 4.5 1006329
22:00+27зюз247184 0.0 1009184
2 марта, вт
вт201:00+26з137772 0.1 1009229
04:00+24зюз248599 0.1 1008251
07:00+24з258699 0.1 1010441
10:00+29юз346580 0.0 1011766
13:00+34ююз344742 0.0 10071319
16:00+34ю234469 0.6 10041731
19:00+29зюз356256 0.7 1006385
22:00+28з237085 0.0 1008174